This demonstration page uses our WeatherBlox Daily Observations layout. Learn more.

Left ArrowRight Arrow

39.92423, -83.80882

Hourly Observations for May 13, 2020

Temp ( °F °C ) Dew Point ( °F °C ) Humidity (%) Winds ( mph kmh ) Pressure ( in mb ) Visibility ( mi km ) Precip ( " mm )
12:56 am 00:56 Clear 41 5 36 2.2 82 82 Calm 30.26 1025 10 16.0934 0.03 0.762
1:56 am 01:56 Clear 44 6.7 33 0.6 65 65 SSW 6 9 30.26 1025 10 16.0934 0 0
2:56 am 02:56 Clear 44 6.7 33 0.6 65 65 NNE 5 7 30.27 1025 10 16.0934 0.27 6.858
3:56 am 03:56 Clear 42 5.6 32 0 68 68 Calm 30.28 1025 10 16.0934 0.03 0.762
4:56 am 04:56 Clear 39 3.9 34 1.1 82 82 Calm 30.29 1026 10 16.0934 0 0
5:56 am 05:56 Clear 38 3.3 33 0.6 83 83 ESE 3 6 30.3 1026 10 16.0934 0 0
6:56 am 06:56 Mostly Sunny 35 1.7 34 1.1 96 96 ESE 3 6 30.32 1027 10 16.0934 0 0
7:56 am 07:56 Cloudy 46 7.8 38 3.3 73 73 E 5 7 30.33 1027 10 16.0934 0.07 1.778
8:56 am 08:56 Cloudy 51 10.6 38 3.3 61 61 ESE 5 7 30.34 1027 10 16.0934 0 0
9:56 am 09:56 Cloudy 53 11.7 39 3.9 59 59 SE 6 9 30.35 1028 10 16.0934 0 0
10:56 am 10:56 Mostly Cloudy 56 13.3 39 3.9 53 53 S 8 13 30.35 1028 10 16.0934 0 0
11:56 am 11:56 Sunny 58 14.4 37 2.8 46 46 SSE 9 15 30.34 1027 10 16.0934 0 0
12:56 pm 12:56 Mostly Sunny 61 16.1 37 2.8 41 41 ESE 13 20 30.31 1027 10 16.0934 0 0
1:56 pm 13:56 Sunny 62 16.7 36 2.2 38 38 SE 14 22 30.29 1026 10 16.0934 0 0
2:56 pm 14:56 Sunny 63 17.2 33 0.6 33 33 SE 15 24 30.27 1025 10 16.0934 0.01 0.254
3:56 pm 15:56 Partly Cloudy 65 18.3 34 1.1 32 32 ESE 13 20 30.25 1024 10 16.0934 0 0
4:56 pm 16:56 Cloudy 63 17.2 37 2.8 38 38 SSW 10 17 30.23 1024 10 16.0934 0 0
5:56 pm 17:56 Cloudy 61 16.1 35 1.7 38 38 S 10 17 30.23 1024 10 16.0934 0 0
6:56 pm 18:56 Cloudy 60 15.6 36 2.2 41 41 S 9 15 30.22 1023 10 16.0934 0 0
7:56 pm 19:56 Cloudy 59 15 36 2.2 42 42 S 7 11 30.22 1023 10 16.0934 0 0
8:56 pm 20:56 Mostly Clear 56 13.3 37 2.8 49 49 SSE 7 11 30.22 1023 10 16.0934 0 0
9:56 pm 21:56 Cloudy 56 13.3 40 4.4 55 55 S 6 9 30.21 1023 10 16.0934 0 0
10:56 pm 22:56 Cloudy 55 12.8 42 5.6 62 62 SSE 8 13 30.2 1023 10 16.0934 0 0
11:13 pm 23:13 Cloudy 55 13 43 6 63 63 SSE 8 13 30.19 1022 10 16.0934 0 0
11:56 pm 23:56 Cloudy 55 12.8 43 6.1 64 64 SE 6 9 30.19 1023 10 16.0934 0 0

Powered by AerisWeather